Location: Cactus School
(34.5700°N, 118.0931°W)
Time: 18:35:03
(UTC-07:00)

Transit 4A - Pass Details

Date: 20 April 2024
Orbit: 871 x 971 km, 66.8° (Epoch: 21 May)

Event Time Altitude Azimuth Distance (km) Brightness Sun altitude
Rises 14:55:32 0° 260° (W) 3,531 11.4 53.8°
Reaches altitude 10° 14:59:41 10° 287° (WNW) 2,571 10.7 53.1°
Maximum altitude 15:02:17 13° 314° (NW) 2,352 10.3 52.6°
Drops below altitude 10° 15:04:53 10° 340° (NNW) 2,550 10.3 52.1°
Sets 15:09:00 0° 8° (N) 3,477 10.7 51.4°
